[[{"header":{"parameterUnit":"m.s-1","parameterCategory":1,"la1":30.2992,"la2":30.254,"lo1":-89.0895,"lo2":-89.0443,"dy":0.0025,"dx":0.0025,"nx":19,"ny":19,"refTime":"2026-04-24T21:00:00:Z","depth":0,"parameterNumber":2,"parameterNumberName":"U-component_of_WINDS"},"data":[0,0,0,-0.6522,-0.6522,-0.656,-0.656,-0.6602,-0.6603,0,0,0,0,0,0,0,0,0,0,0,-0.6506,-0.6506,-0.6522,-0.6522,-0.656,-0.656,-0.6602,-0.6603,0,0,0,0,0,0,0,0,0,0,0,-0.6506,-0.6506,-0.6507,-0.6523,-0.656,-0.656,-0.6602,-0.6576,0,0,0,0,0,0,0,0,0,0,-0.654,-0.6522,-0.6506,-0.6507,-0.6523,-0.656,-0.656,-0.6575,-0.6578,-0.6582,0,-0.6585,0,-0.6594,-0.6605,-0.6605,0,0,0,-0.6526,-0.652,-0.6534,-0.6507,-0.6523,-0.656,-0.6544,-0.6576,-0.658,-0.6586,-0.6586,-0.6588,-0.6595,-0.6605,-0.6605,-0.6621,-0.6621,0,0,-0.6523,-0.6511,-0.6531,-0.6535,-0.6529,-0.6543,-0.6545,-0.6578,-0.6578,-0.6586,-0.6589,-0.6596,-0.6605,-0.6606,-0.6622,-0.6621,0,0,0,-0.6515,-0.6509,-0.6523,-0.6534,-0.6541,-0.6544,-0.6547,-0.6576,-0.6582,-0.6589,-0.6596,-0.6606,-0.6606,-0.6622,-0.6621,-0.6606,0,0,0,-0.6514,-0.6505,-0.6521,-0.6514,-0.654,-0.6559,-0.6543,-0.6579,-0.6583,-0.6596,-0.6606,-0.6606,-0.6622,-0.6622,-0.6606,-0.66,0,0,0,-0.6505,-0.6504,-0.6508,-0.6513,-0.6529,-0.6559,-0.6566,-0.658,-0.6588,-0.6605,-0.6606,-0.6622,-0.6622,-0.6607,-0.6601,-0.6601,0,0,0,-0.6492,-0.6493,-0.6507,-0.6511,-0.6529,-0.6549,-0.6566,-0.6581,-0.6595,-0.6606,-0.6622,-0.6621,-0.6607,-0.6602,-0.6601,-0.6598,-0.6596,0,0,-0.6487,-0.6492,-0.6495,-0.6509,-0.6523,-0.6544,-0.6556,-0.658,-0.6593,-0.6611,-0.6612,-0.6606,-0.6601,-0.6601,-0.6586,-0.6584,0,0,0,-0.649,-0.6492,-0.6498,-0.651,-0.6528,-0.6543,-0.6567,-0.6576,-0.6592,-0.66,-0.6606,-0.6604,-0.6604,-0.6603,-0.6601,-0.6603,-0.6621,-0.6621,-0.6621,-0.6464,-0.648,-0.6487,-0.6508,-0.6519,-0.6544,-0.6554,-0.657,-0.6584,-0.6585,-0.6591,-0.658,-0.6578,-0.6577,-0.6578,-0.6591,-0.6591,-0.6591,-0.659,-0.6457,-0.6463,-0.6481,-0.6494,-0.6511,-0.6523,-0.6546,-0.6555,-0.6568,-0.6577,-0.6578,-0.6586,-0.6574,-0.6576,-0.6589,-0.659,-0.659,-0.659,-0.659,-0.6442,-0.6448,-0.6459,-0.6477,-0.649,-0.6511,-0.6523,-0.6539,-0.6554,-0.6555,-0.6562,-0.6562,-0.6565,-0.6557,-0.6557,-0.6557,-0.6557,-0.6557,-0.6557,-0.6423,-0.6435,-0.6443,-0.6462,-0.6472,-0.6486,-0.651,-0.652,-0.6535,-0.6546,-0.6546,-0.6559,-0.657,-0.6572,-0.6556,-0.6556,-0.6557,-0.6557,-0.6557,-0.641,-0.6415,-0.6427,-0.6437,-0.646,-0.6472,-0.6492,-0.651,-0.6521,-0.6526,-0.6539,-0.6544,-0.6551,-0.6553,-0.6555,-0.6536,-0.6536,-0.6536,-0.6536,-0.6398,-0.6402,-0.6418,-0.6432,-0.6448,-0.6467,-0.648,-0.6498,-0.6519,-0.6526,-0.6531,-0.6535,-0.6536,-0.6543,-0.6544,-0.6546,-0.6526,-0.6526,-0.6526,-0.6391,-0.6398,-0.6406,-0.6425,-0.6445,-0.6461,-0.6474,-0.649,-0.6514,-0.6525,-0.6533,-0.6533,-0.654,-0.6541,-0.6552,-0.6555,-0.6559,0,0]},{"header":{"parameterUnit":"m.s-1","parameterCategory":1,"la1":30.2992,"la2":30.254,"lo1":-89.0895,"lo2":-89.0443,"dy":0.0025,"dx":0.0025,"nx":19,"ny":19,"refTime":"2026-04-24T21:00:00:Z","depth":0,"parameterNumber":3,"parameterNumberName":"V-component_of_WINDS"},"data":[0,0,0,5.1595,5.1599,5.1788,5.1789,5.2024,5.2026,0,0,0,0,0,0,0,0,0,0,0,5.1535,5.1537,5.1595,5.1599,5.1788,5.1789,5.2023,5.2026,0,0,0,0,0,0,0,0,0,0,0,5.1534,5.1536,5.1538,5.16,5.1788,5.1789,5.2023,5.1882,0,0,0,0,0,0,0,0,0,0,5.17,5.1641,5.1536,5.1538,5.1601,5.1788,5.1789,5.1876,5.1891,5.1935,0,5.1973,0,5.2003,5.2041,5.2042,0,0,0,5.1602,5.1628,5.1683,5.1538,5.1603,5.1788,5.1704,5.1885,5.1902,5.1955,5.1977,5.1986,5.2007,5.2042,5.2044,5.2288,5.2289,0,0,5.1591,5.1567,5.1671,5.1694,5.1665,5.1698,5.171,5.1895,5.1917,5.1978,5.1991,5.2011,5.2044,5.2046,5.2287,5.2289,0,0,0,5.156,5.1559,5.161,5.1684,5.1719,5.1703,5.1717,5.1908,5.1927,5.1994,5.2014,5.2045,5.2048,5.2286,5.2288,5.2315,0,0,0,5.1553,5.1541,5.1605,5.1592,5.1715,5.1816,5.1726,5.1914,5.1936,5.2013,5.2045,5.205,5.2285,5.2287,5.2312,5.2333,0,0,0,5.1524,5.1538,5.1564,5.159,5.1671,5.1814,5.1843,5.1919,5.1948,5.2042,5.2051,5.2285,5.2287,5.2309,5.2328,5.2391,0,0,0,5.1485,5.1585,5.1564,5.1682,5.1669,5.1829,5.1842,5.1962,5.2046,5.2046,5.2285,5.2288,5.2309,5.2325,5.2388,5.244,5.2459,0,0,5.1597,5.1597,5.1669,5.1656,5.1814,5.1802,5.1964,5.2064,5.2094,5.2222,5.2228,5.2313,5.2328,5.239,5.2573,5.2588,0,0,0,5.1696,5.1748,5.1795,5.1874,5.1953,5.2022,5.2099,5.2136,5.2246,5.2155,5.2353,5.2362,5.24,5.2426,5.2439,5.2473,5.2298,5.2298,5.2298,5.182,5.1855,5.1976,5.2034,5.211,5.2189,5.2254,5.2317,5.2329,5.2375,5.2413,5.252,5.255,5.256,5.2595,5.2443,5.2443,5.2443,5.2443,5.1989,5.2067,5.2081,5.2204,5.2239,5.2342,5.2422,5.2427,5.2528,5.2494,5.2529,5.249,5.2575,5.2608,5.2445,5.2445,5.2445,5.2444,5.2444,5.2075,5.2119,5.2162,5.228,5.2366,5.242,5.2517,5.2545,5.2573,5.2607,5.2651,5.2651,5.2655,5.2626,5.2626,5.2627,5.2627,5.2627,5.2627,5.2148,5.2195,5.2274,5.2365,5.242,5.2495,5.2575,5.2629,5.2697,5.271,5.271,5.2718,5.2577,5.2541,5.2633,5.2632,5.2632,5.2631,5.2631,5.2308,5.2276,5.2397,5.2451,5.2561,5.2646,5.268,5.2788,5.2837,5.2884,5.2884,5.2775,5.2777,5.2767,5.2738,5.2876,5.2876,5.2876,5.2876,5.2381,5.2385,5.2515,5.2601,5.2687,5.2731,5.2866,5.2929,5.2988,5.3021,5.3005,5.2968,5.2956,5.2966,5.2951,5.2925,5.3107,5.3107,5.3108,5.2482,5.2495,5.2606,5.2664,5.2751,5.2826,5.2954,5.3052,5.3112,5.3118,5.3047,5.3037,5.2978,5.2957,5.2962,5.2939,5.2891,0,0]}]]